TimeCST,TemperatureF,Dew PointF,Humidity,Sea Level PressureIn,VisibilityMPH,Wind Direction,Wind SpeedMPH,Gust SpeedMPH,PrecipitationIn,Events,Conditions,WindDirDegrees,DateUTC
12:52 AM,21.9,15.1,75,29.91,10.0,WSW,4.6,-,N/A,,Clear,250,2013-02-12 06:52:00
1:52 AM,21.0,15.1,78,29.89,10.0,SW,6.9,-,N/A,,Clear,220,2013-02-12 07:52:00
2:52 AM,19.9,14.0,78,29.89,10.0,WSW,6.9,-,N/A,,Clear,240,2013-02-12 08:52:00
3:52 AM,19.0,14.0,81,29.88,10.0,WSW,3.5,-,N/A,,Clear,240,2013-02-12 09:52:00
4:52 AM,21.0,14.0,74,29.90,10.0,West,5.8,-,N/A,,Clear,270,2013-02-12 10:52:00
5:52 AM,18.0,12.9,81,29.91,10.0,Calm,Calm,-,N/A,,Clear,0,2013-02-12 11:52:00
6:52 AM,19.9,14.0,78,29.93,10.0,WSW,5.8,-,N/A,,Clear,250,2013-02-12 12:52:00
7:52 AM,19.0,14.0,81,29.94,10.0,West,3.5,-,N/A,,Clear,280,2013-02-12 13:52:00
8:52 AM,21.9,16.0,78,29.94,10.0,WNW,9.2,-,N/A,,Clear,290,2013-02-12 14:52:00
9:52 AM,25.0,18.0,75,29.96,10.0,West,9.2,-,N/A,,Clear,280,2013-02-12 15:52:00
10:52 AM,30.0,19.9,66,29.97,10.0,WNW,8.1,-,N/A,,Clear,300,2013-02-12 16:52:00
11:52 AM,32.0,21.9,66,29.97,10.0,WNW,13.8,-,N/A,,Clear,300,2013-02-12 17:52:00
12:52 PM,34.0,23.0,64,29.94,10.0,West,11.5,-,N/A,,Clear,280,2013-02-12 18:52:00
1:52 PM,36.0,25.0,64,29.93,10.0,WNW,10.4,19.6,N/A,,Partly Cloudy,290,2013-02-12 19:52:00
2:52 PM,37.9,26.1,62,29.91,10.0,WNW,13.8,-,N/A,,Partly Cloudy,290,2013-02-12 20:52:00
3:52 PM,37.0,25.0,62,29.92,10.0,WNW,12.7,-,N/A,,Partly Cloudy,300,2013-02-12 21:52:00
4:52 PM,36.0,26.1,67,29.92,10.0,WNW,9.2,-,N/A,,Mostly Cloudy,300,2013-02-12 22:52:00
5:52 PM,36.0,27.0,70,29.92,10.0,WNW,8.1,-,N/A,,Overcast,290,2013-02-12 23:52:00
6:52 PM,35.1,27.0,72,29.91,10.0,West,6.9,-,N/A,,Overcast,270,2013-02-13 00:52:00
7:52 PM,35.1,27.0,72,29.91,10.0,Calm,Calm,-,N/A,,Overcast,0,2013-02-13 01:52:00
8:52 PM,34.0,27.0,75,29.90,10.0,WSW,4.6,-,N/A,,Overcast,250,2013-02-13 02:52:00
9:52 PM,34.0,27.0,75,29.88,10.0,West,5.8,-,N/A,,Overcast,260,2013-02-13 03:52:00
10:52 PM,33.1,27.0,78,29.84,10.0,West,6.9,-,N/A,,Mostly Cloudy,260,2013-02-13 04:52:00
11:52 PM,35.1,26.1,70,29.83,10.0,SW,3.5,-,N/A,,Mostly Cloudy,230,2013-02-13 05:52:00